Year,Month,Day,Hour,Minute,Value (Times are PST for temperature in C)
2014,01,10,00,00,2.60
2014,01,10,00,01,2.60
2014,01,10,00,02,2.60
2014,01,10,00,03,2.60
2014,01,10,00,04,2.60
2014,01,10,00,05,2.60
2014,01,10,00,06,2.60
2014,01,10,00,07,2.60
2014,01,10,00,08,2.60
2014,01,10,00,09,2.60
2014,01,10,00,10,2.60
2014,01,10,00,11,2.60
2014,01,10,00,12,2.60
2014,01,10,00,13,2.60
2014,01,10,00,14,2.60
2014,01,10,00,15,2.60
2014,01,10,00,16,2.60
2014,01,10,00,17,2.60
2014,01,10,00,18,2.60
2014,01,10,00,19,2.60
2014,01,10,00,20,2.60
2014,01,10,00,21,2.60
2014,01,10,00,22,2.60
2014,01,10,00,23,2.60
2014,01,10,00,24,2.60
2014,01,10,00,25,2.60
2014,01,10,00,26,2.60
2014,01,10,00,27,2.60
2014,01,10,00,28,2.60
2014,01,10,00,29,2.60
2014,01,10,00,30,2.60
2014,01,10,00,31,2.60
2014,01,10,00,32,2.60
2014,01,10,00,33,2.60
2014,01,10,00,34,2.60
2014,01,10,00,35,2.60
2014,01,10,00,36,2.50
2014,01,10,00,37,2.50
2014,01,10,00,38,2.50
2014,01,10,00,39,2.50
2014,01,10,00,40,2.50
2014,01,10,00,41,2.50
2014,01,10,00,42,2.50
2014,01,10,00,43,2.50
2014,01,10,00,44,2.50
2014,01,10,00,45,2.40
2014,01,10,00,46,2.40
2014,01,10,00,47,2.40
2014,01,10,00,48,2.40
2014,01,10,00,49,2.40
2014,01,10,00,50,2.40
2014,01,10,00,51,2.40
2014,01,10,00,52,2.40
2014,01,10,00,53,2.40
2014,01,10,00,54,2.40
2014,01,10,00,55,2.40
2014,01,10,00,56,2.40
2014,01,10,00,57,2.40
2014,01,10,00,58,2.40
2014,01,10,00,59,2.40
2014,01,10,01,00,2.40
2014,01,10,01,01,2.40
2014,01,10,01,02,2.40
2014,01,10,01,03,2.40
2014,01,10,01,04,2.40
2014,01,10,01,05,2.40
2014,01,10,01,06,2.40
2014,01,10,01,07,2.40
2014,01,10,01,08,2.40
2014,01,10,01,09,2.40
2014,01,10,01,10,2.50
2014,01,10,01,11,2.40
2014,01,10,01,12,2.50
2014,01,10,01,13,2.50
2014,01,10,01,14,2.50
2014,01,10,01,15,2.50
2014,01,10,01,16,2.50
2014,01,10,01,17,2.50
2014,01,10,01,18,2.50
2014,01,10,01,19,2.50
2014,01,10,01,20,2.50
2014,01,10,01,21,2.50
2014,01,10,01,22,2.50
2014,01,10,01,23,2.50
2014,01,10,01,24,2.50
2014,01,10,01,25,2.50
2014,01,10,01,26,2.50
2014,01,10,01,27,2.50
2014,01,10,01,28,2.50
2014,01,10,01,29,2.50
2014,01,10,01,30,2.50
2014,01,10,01,31,2.50
2014,01,10,01,32,2.60
2014,01,10,01,33,2.60
2014,01,10,01,34,2.60
2014,01,10,01,35,2.60
2014,01,10,01,36,2.60
2014,01,10,01,37,2.60
2014,01,10,01,38,2.60
2014,01,10,01,39,2.60
2014,01,10,01,40,2.60
2014,01,10,01,41,2.60
2014,01,10,01,42,2.60
2014,01,10,01,43,2.70
2014,01,10,01,44,2.70
2014,01,10,01,45,2.70
2014,01,10,01,46,2.70
2014,01,10,01,47,2.70
2014,01,10,01,48,2.70
2014,01,10,01,49,2.70
2014,01,10,01,50,2.70
2014,01,10,01,51,2.70
2014,01,10,01,52,2.70
2014,01,10,01,53,2.70
2014,01,10,01,54,2.70
2014,01,10,01,55,2.70
2014,01,10,01,56,2.70
2014,01,10,01,57,2.70
2014,01,10,01,58,2.70
2014,01,10,01,59,2.70
2014,01,10,02,00,2.70
2014,01,10,02,01,2.70
2014,01,10,02,02,2.70
2014,01,10,02,03,2.70
2014,01,10,02,04,2.70
2014,01,10,02,05,2.70
2014,01,10,02,06,2.70
2014,01,10,02,07,2.70
2014,01,10,02,08,2.70
2014,01,10,02,09,2.70
2014,01,10,02,10,2.70
2014,01,10,02,11,2.60
2014,01,10,02,12,2.60
2014,01,10,02,13,2.60
2014,01,10,02,14,2.60
2014,01,10,02,15,2.60
2014,01,10,02,16,2.60
2014,01,10,02,17,2.60
2014,01,10,02,18,2.60
2014,01,10,02,19,2.60
2014,01,10,02,20,2.60
2014,01,10,02,21,2.60
2014,01,10,02,22,2.60
2014,01,10,02,23,2.60
2014,01,10,02,24,2.60
2014,01,10,02,25,2.70
2014,01,10,02,26,2.70
2014,01,10,02,27,2.60
2014,01,10,02,28,2.70
2014,01,10,02,29,2.70
2014,01,10,02,30,2.70
2014,01,10,02,31,2.70
2014,01,10,02,32,2.70
2014,01,10,02,33,2.70
2014,01,10,02,34,2.70
2014,01,10,02,35,2.70
2014,01,10,02,36,2.70
2014,01,10,02,37,2.70
2014,01,10,02,38,2.70
2014,01,10,02,39,2.70
2014,01,10,02,40,2.70
2014,01,10,02,41,2.70
2014,01,10,02,42,2.70
2014,01,10,02,43,2.70
2014,01,10,02,44,2.70
2014,01,10,02,45,2.70
2014,01,10,02,46,2.70
2014,01,10,02,47,2.70
2014,01,10,02,48,2.70
2014,01,10,02,49,2.70
2014,01,10,02,50,2.70
2014,01,10,02,51,2.70
2014,01,10,02,52,2.70
2014,01,10,02,53,2.70
2014,01,10,02,54,2.70
2014,01,10,02,55,2.70
2014,01,10,02,56,2.70
2014,01,10,02,57,2.80
2014,01,10,02,58,2.70
2014,01,10,02,59,2.80
2014,01,10,03,00,2.80
2014,01,10,03,01,2.80
2014,01,10,03,02,2.80
2014,01,10,03,03,2.80
2014,01,10,03,04,2.80
2014,01,10,03,05,2.80
2014,01,10,03,06,2.80
2014,01,10,03,07,2.80
2014,01,10,03,08,2.80
2014,01,10,03,09,2.80
2014,01,10,03,10,2.80
2014,01,10,03,11,2.80
2014,01,10,03,12,2.80
2014,01,10,03,13,2.80
2014,01,10,03,14,2.80
2014,01,10,03,15,2.80
2014,01,10,03,16,2.80
2014,01,10,03,17,2.80
2014,01,10,03,18,2.80
2014,01,10,03,19,2.80
2014,01,10,03,20,2.80
2014,01,10,03,21,2.80
2014,01,10,03,22,2.80
2014,01,10,03,23,2.80
2014,01,10,03,24,2.80
2014,01,10,03,25,2.80
2014,01,10,03,26,2.80
2014,01,10,03,27,2.80
2014,01,10,03,28,2.80
2014,01,10,03,29,2.80
2014,01,10,03,30,2.80
2014,01,10,03,31,2.80
2014,01,10,03,32,2.80
2014,01,10,03,33,2.80
2014,01,10,03,34,2.80
2014,01,10,03,35,2.80
2014,01,10,03,36,2.80
2014,01,10,03,37,2.80
2014,01,10,03,38,2.80
2014,01,10,03,39,2.80
2014,01,10,03,40,2.80
2014,01,10,03,41,2.80
2014,01,10,03,42,2.80
2014,01,10,03,43,2.80
2014,01,10,03,44,2.80
2014,01,10,03,45,2.80
2014,01,10,03,46,2.90
2014,01,10,03,47,2.90
2014,01,10,03,48,2.90
2014,01,10,03,49,2.80
2014,01,10,03,50,2.90
2014,01,10,03,51,2.90
2014,01,10,03,52,2.80
2014,01,10,03,53,2.80
2014,01,10,03,54,2.90
2014,01,10,03,55,2.80
2014,01,10,03,56,2.80
2014,01,10,03,57,2.80
2014,01,10,03,58,2.80
2014,01,10,03,59,2.80
2014,01,10,04,00,2.80
2014,01,10,04,01,2.80
2014,01,10,04,02,2.80
2014,01,10,04,03,2.90
2014,01,10,04,04,2.90
2014,01,10,04,05,2.80
2014,01,10,04,06,2.90
2014,01,10,04,07,2.90
2014,01,10,04,08,2.90
2014,01,10,04,09,2.90
2014,01,10,04,10,2.90
2014,01,10,04,11,2.90
2014,01,10,04,12,2.90
2014,01,10,04,13,2.90
2014,01,10,04,14,2.90
2014,01,10,04,15,2.90
2014,01,10,04,16,3.00
2014,01,10,04,17,3.00
2014,01,10,04,18,3.00
2014,01,10,04,19,3.00
2014,01,10,04,20,3.00
2014,01,10,04,21,3.00
2014,01,10,04,22,3.00
2014,01,10,04,23,3.00
2014,01,10,04,24,3.10
2014,01,10,04,25,3.00
2014,01,10,04,26,3.10
2014,01,10,04,27,3.10
2014,01,10,04,28,3.10
2014,01,10,04,29,3.10
2014,01,10,04,30,3.10
2014,01,10,04,31,3.10
2014,01,10,04,32,3.10
2014,01,10,04,33,3.10
2014,01,10,04,34,3.10
2014,01,10,04,35,3.10
2014,01,10,04,36,3.10
2014,01,10,04,37,3.10
2014,01,10,04,38,3.10
2014,01,10,04,39,3.10
2014,01,10,04,40,3.10
2014,01,10,04,41,3.10
2014,01,10,04,42,3.10
2014,01,10,04,43,3.10
2014,01,10,04,44,3.10
2014,01,10,04,45,3.10
2014,01,10,04,46,3.10
2014,01,10,04,47,3.10
2014,01,10,04,48,3.10
2014,01,10,04,49,3.10
2014,01,10,04,50,3.10
2014,01,10,04,51,3.10
2014,01,10,04,52,3.10
2014,01,10,04,53,3.10
2014,01,10,04,54,3.10
2014,01,10,04,55,3.10
2014,01,10,04,56,3.10
2014,01,10,04,57,3.10
2014,01,10,04,58,3.10
2014,01,10,04,59,3.10
2014,01,10,05,00,3.10
2014,01,10,05,01,3.00
2014,01,10,05,02,3.00
2014,01,10,05,03,3.00
2014,01,10,05,04,3.10
2014,01,10,05,05,3.00
2014,01,10,05,06,3.00
2014,01,10,05,07,3.00
2014,01,10,05,08,3.00
2014,01,10,05,09,3.00
2014,01,10,05,10,3.00
2014,01,10,05,11,3.00
2014,01,10,05,12,3.00
2014,01,10,05,13,3.00
2014,01,10,05,14,2.90
2014,01,10,05,15,2.90
2014,01,10,05,16,2.90
2014,01,10,05,17,2.90
2014,01,10,05,18,2.90
2014,01,10,05,19,2.90
2014,01,10,05,20,2.90
2014,01,10,05,21,2.90
2014,01,10,05,22,2.90
2014,01,10,05,23,2.90
2014,01,10,05,24,2.90
2014,01,10,05,25,2.90
2014,01,10,05,26,2.90
2014,01,10,05,27,2.90
2014,01,10,05,28,2.90
2014,01,10,05,29,2.90
2014,01,10,05,30,2.90
2014,01,10,05,31,2.90
2014,01,10,05,32,2.90
2014,01,10,05,33,2.90
2014,01,10,05,34,2.90
2014,01,10,05,35,2.90
2014,01,10,05,36,2.90
2014,01,10,05,37,2.90
2014,01,10,05,38,2.90
2014,01,10,05,39,2.90
2014,01,10,05,40,2.90
2014,01,10,05,41,2.90
2014,01,10,05,42,2.90
2014,01,10,05,43,2.90
2014,01,10,05,44,2.90
2014,01,10,05,45,2.90
2014,01,10,05,46,2.90
2014,01,10,05,47,2.90
2014,01,10,05,48,2.90
2014,01,10,05,49,2.90
2014,01,10,05,50,2.90
2014,01,10,05,51,2.90
2014,01,10,05,52,2.90
2014,01,10,05,53,2.90
2014,01,10,05,54,2.90
2014,01,10,05,55,2.90
2014,01,10,05,56,2.90
2014,01,10,05,57,2.90
2014,01,10,05,58,2.90
2014,01,10,05,59,2.90
2014,01,10,06,00,2.90
2014,01,10,06,01,2.90
2014,01,10,06,02,2.90
2014,01,10,06,03,2.90
2014,01,10,06,04,2.90
2014,01,10,06,05,2.90
2014,01,10,06,06,2.90
2014,01,10,06,07,2.90
2014,01,10,06,08,2.90
2014,01,10,06,09,2.80
2014,01,10,06,10,2.80
2014,01,10,06,11,2.80
2014,01,10,06,12,2.80
2014,01,10,06,13,2.80
2014,01,10,06,14,2.80
2014,01,10,06,15,2.80
2014,01,10,06,16,2.80
2014,01,10,06,17,2.80
2014,01,10,06,18,2.80
2014,01,10,06,19,2.80
2014,01,10,06,20,2.80
2014,01,10,06,21,2.80
2014,01,10,06,22,2.70
2014,01,10,06,23,2.70
2014,01,10,06,24,2.70
2014,01,10,06,25,2.70
2014,01,10,06,26,2.70
2014,01,10,06,27,2.60
2014,01,10,06,28,2.60
2014,01,10,06,29,2.60
2014,01,10,06,30,2.60
2014,01,10,06,31,2.60
2014,01,10,06,32,2.60
2014,01,10,06,33,2.60
2014,01,10,06,34,2.60
2014,01,10,06,35,2.60
2014,01,10,06,36,2.60
2014,01,10,06,37,2.60
2014,01,10,06,38,2.50
2014,01,10,06,39,2.50
2014,01,10,06,40,2.50
2014,01,10,06,41,2.50
2014,01,10,06,42,2.50
2014,01,10,06,43,2.50
2014,01,10,06,44,2.50
2014,01,10,06,45,2.40
2014,01,10,06,46,2.40
2014,01,10,06,47,2.40
2014,01,10,06,48,2.40
2014,01,10,06,49,2.40
2014,01,10,06,50,2.40
2014,01,10,06,51,2.40
2014,01,10,06,52,2.40
2014,01,10,06,53,2.40
2014,01,10,06,54,2.40
2014,01,10,06,55,2.40
2014,01,10,06,56,2.40
2014,01,10,06,57,2.40
2014,01,10,06,58,2.40
2014,01,10,06,59,2.40
2014,01,10,07,00,2.40
2014,01,10,07,01,2.40
2014,01,10,07,02,2.40
2014,01,10,07,03,2.40
2014,01,10,07,04,2.40
2014,01,10,07,05,2.40
2014,01,10,07,06,2.40
2014,01,10,07,07,2.40
2014,01,10,07,08,2.40
2014,01,10,07,09,2.40
2014,01,10,07,10,2.40
2014,01,10,07,11,2.40
2014,01,10,07,12,2.30
2014,01,10,07,13,2.30
2014,01,10,07,14,2.40
2014,01,10,07,15,2.30
2014,01,10,07,16,2.40
2014,01,10,07,17,2.30
2014,01,10,07,18,2.40
2014,01,10,07,19,2.40
2014,01,10,07,20,2.40
2014,01,10,07,21,2.40
2014,01,10,07,22,2.30
2014,01,10,07,23,2.30
2014,01,10,07,24,2.30
2014,01,10,07,25,2.30
2014,01,10,07,26,2.30
2014,01,10,07,27,2.30
2014,01,10,07,28,2.30
2014,01,10,07,29,2.40
2014,01,10,07,30,2.40
2014,01,10,07,31,2.40
2014,01,10,07,32,2.40
2014,01,10,07,33,2.40
2014,01,10,07,34,2.40
2014,01,10,07,35,2.40
2014,01,10,07,36,2.40
2014,01,10,07,37,2.40
2014,01,10,07,38,2.50
2014,01,10,07,39,2.60
2014,01,10,07,40,2.60
2014,01,10,07,41,2.60
2014,01,10,07,42,2.70
2014,01,10,07,43,2.70
2014,01,10,07,44,2.70
2014,01,10,07,45,2.70
2014,01,10,07,46,2.70
2014,01,10,07,47,2.70
2014,01,10,07,48,2.70
2014,01,10,07,49,2.70
2014,01,10,07,50,2.70
2014,01,10,07,51,2.70
2014,01,10,07,52,2.70
2014,01,10,07,53,2.70
2014,01,10,07,54,2.70
2014,01,10,07,55,2.70
2014,01,10,07,56,2.70
2014,01,10,07,57,2.70
2014,01,10,07,58,2.70
2014,01,10,07,59,2.60
2014,01,10,08,00,2.60
2014,01,10,08,01,2.60
2014,01,10,08,02,2.60
2014,01,10,08,03,2.60
2014,01,10,08,04,2.60
2014,01,10,08,05,2.60
2014,01,10,08,06,2.60
2014,01,10,08,07,2.60
2014,01,10,08,08,2.50
2014,01,10,08,09,2.50
2014,01,10,08,10,2.50
2014,01,10,08,11,2.50
2014,01,10,08,12,2.50
2014,01,10,08,13,2.50
2014,01,10,08,14,2.50
2014,01,10,08,15,2.50
2014,01,10,08,16,2.50
2014,01,10,08,17,2.50
2014,01,10,08,18,2.50
2014,01,10,08,19,2.50
2014,01,10,08,20,2.50
2014,01,10,08,21,2.50
2014,01,10,08,22,2.40
2014,01,10,08,23,2.40
2014,01,10,08,24,2.40
2014,01,10,08,25,2.40
2014,01,10,08,26,2.40
2014,01,10,08,27,2.40
2014,01,10,08,28,2.40
2014,01,10,08,29,2.40
2014,01,10,08,30,2.40
2014,01,10,08,31,2.30
2014,01,10,08,32,2.30
2014,01,10,08,33,2.30
2014,01,10,08,34,2.40
2014,01,10,08,35,2.40
2014,01,10,08,36,2.40
2014,01,10,08,37,2.40
2014,01,10,08,38,2.40
2014,01,10,08,39,2.40
2014,01,10,08,40,2.40
2014,01,10,08,41,2.40
2014,01,10,08,42,2.40
2014,01,10,08,43,2.40
2014,01,10,08,44,2.40
2014,01,10,08,45,2.40
2014,01,10,08,46,2.40
2014,01,10,08,47,2.50
2014,01,10,08,48,2.50
2014,01,10,08,49,2.60
2014,01,10,08,50,2.60
2014,01,10,08,51,2.60
2014,01,10,08,52,2.60
2014,01,10,08,53,2.70
2014,01,10,08,54,2.70
2014,01,10,08,55,2.70
2014,01,10,08,56,2.70
2014,01,10,08,57,2.70
2014,01,10,08,58,2.80
2014,01,10,08,59,2.80
2014,01,10,09,00,2.80
2014,01,10,09,01,2.80
2014,01,10,09,02,2.80
2014,01,10,09,03,2.80
2014,01,10,09,04,2.80
2014,01,10,09,05,2.90
2014,01,10,09,06,2.90
2014,01,10,09,07,2.90
2014,01,10,09,08,2.90
2014,01,10,09,09,2.90
2014,01,10,09,10,2.90
2014,01,10,09,11,2.90
2014,01,10,09,12,2.90
2014,01,10,09,13,2.90
2014,01,10,09,14,2.80
2014,01,10,09,15,2.80
2014,01,10,09,16,2.80
2014,01,10,09,17,2.80
2014,01,10,09,18,2.80
2014,01,10,09,19,2.80
2014,01,10,09,20,2.80
2014,01,10,09,21,2.80
2014,01,10,09,22,2.80
2014,01,10,09,23,2.80
2014,01,10,09,24,2.80
2014,01,10,09,25,2.80
2014,01,10,09,26,2.80
2014,01,10,09,27,2.80
2014,01,10,09,28,2.80
2014,01,10,09,29,2.80
2014,01,10,09,30,2.80
2014,01,10,09,31,2.80
2014,01,10,09,32,2.80
2014,01,10,09,33,2.80
2014,01,10,09,34,2.80
2014,01,10,09,35,2.80
2014,01,10,09,36,2.80
2014,01,10,09,37,2.90
2014,01,10,09,38,2.90
2014,01,10,09,39,2.90
2014,01,10,09,40,2.90
2014,01,10,09,41,2.90
2014,01,10,09,42,2.90
2014,01,10,09,43,2.90
2014,01,10,09,44,2.90
2014,01,10,09,45,2.90
2014,01,10,09,46,3.00
2014,01,10,09,47,3.00
2014,01,10,09,48,3.00
2014,01,10,09,49,3.00
2014,01,10,09,50,3.10
2014,01,10,09,51,3.10
2014,01,10,09,52,3.10
2014,01,10,09,53,3.10
2014,01,10,09,54,3.10
2014,01,10,09,55,3.10
2014,01,10,09,56,3.10
2014,01,10,09,57,3.10
2014,01,10,09,58,3.10
2014,01,10,09,59,3.10
2014,01,10,10,00,3.10
2014,01,10,10,01,3.10
2014,01,10,10,02,3.10
2014,01,10,10,03,3.10
2014,01,10,10,04,3.10
2014,01,10,10,05,3.10
2014,01,10,10,06,3.10
2014,01,10,10,07,3.10
2014,01,10,10,08,3.10
2014,01,10,10,09,3.10
2014,01,10,10,10,3.10
2014,01,10,10,11,3.10
2014,01,10,10,12,3.10
2014,01,10,10,13,3.10
2014,01,10,10,14,3.10
2014,01,10,10,15,3.10
2014,01,10,10,16,3.10
2014,01,10,10,17,3.10
2014,01,10,10,18,3.10
2014,01,10,10,19,3.10
2014,01,10,10,20,3.10
2014,01,10,10,21,3.10
2014,01,10,10,22,3.20
2014,01,10,10,23,3.20
2014,01,10,10,24,3.20
2014,01,10,10,25,3.20
2014,01,10,10,26,3.20
2014,01,10,10,27,3.20
2014,01,10,10,28,3.20
2014,01,10,10,29,3.20
2014,01,10,10,30,3.20
2014,01,10,10,31,3.20
2014,01,10,10,32,3.30
2014,01,10,10,33,3.30
2014,01,10,10,34,3.30
2014,01,10,10,35,3.30
2014,01,10,10,36,3.30
2014,01,10,10,37,3.30
2014,01,10,10,38,3.30
2014,01,10,10,39,3.40
2014,01,10,10,40,3.40
2014,01,10,10,41,3.40
2014,01,10,10,42,3.40
2014,01,10,10,43,3.40
2014,01,10,10,44,3.40
2014,01,10,10,45,3.50
2014,01,10,10,46,3.50
2014,01,10,10,47,3.50
2014,01,10,10,48,3.60
2014,01,10,10,49,3.60
2014,01,10,10,50,3.60
2014,01,10,10,51,3.60
2014,01,10,10,52,3.60
2014,01,10,10,53,3.60
2014,01,10,10,54,3.60
2014,01,10,10,55,3.70
2014,01,10,10,56,3.70
2014,01,10,10,57,3.70
2014,01,10,10,58,3.70
2014,01,10,10,59,3.70
2014,01,10,11,00,3.70
2014,01,10,11,01,3.70
2014,01,10,11,02,3.70
2014,01,10,11,03,3.70
2014,01,10,11,04,3.70
2014,01,10,11,05,3.80
2014,01,10,11,06,3.80
2014,01,10,11,07,3.80
2014,01,10,11,08,3.80
2014,01,10,11,09,3.80
2014,01,10,11,10,3.80
2014,01,10,11,11,3.80
2014,01,10,11,12,3.80
2014,01,10,11,13,3.80
2014,01,10,11,14,3.80
2014,01,10,11,15,3.90
2014,01,10,11,16,3.90
2014,01,10,11,17,3.90
2014,01,10,11,18,3.90
2014,01,10,11,19,3.90
2014,01,10,11,20,4.00
2014,01,10,11,21,4.00
2014,01,10,11,22,4.10
2014,01,10,11,23,4.10
2014,01,10,11,24,4.20
2014,01,10,11,25,4.20
2014,01,10,11,26,4.20
2014,01,10,11,27,4.30
2014,01,10,11,28,4.30
2014,01,10,11,29,4.40
2014,01,10,11,30,4.50
2014,01,10,11,31,4.60
2014,01,10,11,32,4.70
2014,01,10,11,33,4.70
2014,01,10,11,34,4.80
2014,01,10,11,35,4.80
2014,01,10,11,36,4.90
2014,01,10,11,37,4.90
2014,01,10,11,38,5.00
2014,01,10,11,39,5.10
2014,01,10,11,40,5.10
2014,01,10,11,41,5.20
2014,01,10,11,42,5.20
2014,01,10,11,43,5.30
2014,01,10,11,44,5.30
2014,01,10,11,45,5.40
2014,01,10,11,46,5.40
2014,01,10,11,47,5.50
2014,01,10,11,48,5.60
2014,01,10,11,49,5.70
2014,01,10,11,50,5.70
2014,01,10,11,51,5.80
2014,01,10,11,52,5.90
2014,01,10,11,53,5.90
2014,01,10,11,54,6.00
2014,01,10,11,55,6.00
2014,01,10,11,56,6.10
2014,01,10,11,57,6.20
2014,01,10,11,58,6.20
2014,01,10,11,59,6.30
2014,01,10,12,00,6.40
2014,01,10,12,01,6.50
2014,01,10,12,02,6.60
2014,01,10,12,03,6.70
2014,01,10,12,04,6.80
2014,01,10,12,05,6.90
2014,01,10,12,06,7.00
2014,01,10,12,07,7.10
2014,01,10,12,08,7.10
2014,01,10,12,09,7.20
2014,01,10,12,10,7.20
2014,01,10,12,11,7.30
2014,01,10,12,12,7.40
2014,01,10,12,13,7.40
2014,01,10,12,14,7.50
2014,01,10,12,15,7.60
2014,01,10,12,16,7.60
2014,01,10,12,17,7.60
2014,01,10,12,18,7.70
2014,01,10,12,19,7.70
2014,01,10,12,20,7.70
2014,01,10,12,21,7.70
2014,01,10,12,22,7.70
2014,01,10,12,23,7.80
2014,01,10,12,24,7.80
2014,01,10,12,25,7.80
2014,01,10,12,26,7.80
2014,01,10,12,27,7.80
2014,01,10,12,28,7.80
2014,01,10,12,29,7.80
2014,01,10,12,30,7.80
2014,01,10,12,31,7.80
2014,01,10,12,32,7.80
2014,01,10,12,33,7.90
2014,01,10,12,34,7.90
2014,01,10,12,35,7.90
2014,01,10,12,36,7.90
2014,01,10,12,37,7.90
2014,01,10,12,38,8.00
2014,01,10,12,39,8.00
2014,01,10,12,40,8.00
2014,01,10,12,41,8.00
2014,01,10,12,42,8.00
2014,01,10,12,43,8.00
2014,01,10,12,44,8.00
2014,01,10,12,45,8.00
2014,01,10,12,46,8.00
2014,01,10,12,47,8.00
2014,01,10,12,48,8.00
2014,01,10,12,49,8.00
2014,01,10,12,50,8.10
2014,01,10,12,51,8.10
2014,01,10,12,52,8.10
2014,01,10,12,53,8.10
2014,01,10,12,54,8.10
2014,01,10,12,55,8.10
2014,01,10,12,56,8.10
2014,01,10,12,57,8.10
2014,01,10,12,58,8.10
2014,01,10,12,59,8.10
2014,01,10,13,00,8.10
2014,01,10,13,01,8.10
2014,01,10,13,02,8.10
2014,01,10,13,03,8.10
2014,01,10,13,04,8.10
2014,01,10,13,05,8.10
2014,01,10,13,06,8.10
2014,01,10,13,07,8.10
2014,01,10,13,08,8.10
2014,01,10,13,09,8.10
2014,01,10,13,10,8.10
2014,01,10,13,11,8.10
2014,01,10,13,12,8.10
2014,01,10,13,13,8.10
2014,01,10,13,14,8.10
2014,01,10,13,15,8.10
2014,01,10,13,16,8.10
2014,01,10,13,17,8.10
2014,01,10,13,18,8.10
2014,01,10,13,19,8.10
2014,01,10,13,20,8.10
2014,01,10,13,21,8.10
2014,01,10,13,22,8.10
2014,01,10,13,23,8.10
2014,01,10,13,24,8.10
2014,01,10,13,25,8.10
2014,01,10,13,26,8.10
2014,01,10,13,27,8.10
2014,01,10,13,28,8.10
2014,01,10,13,29,8.10
2014,01,10,13,30,8.10
2014,01,10,13,31,8.10
2014,01,10,13,32,8.10
2014,01,10,13,33,8.10
2014,01,10,13,34,8.10
2014,01,10,13,35,8.10
2014,01,10,13,36,8.10
2014,01,10,13,37,8.10
2014,01,10,13,38,8.10
2014,01,10,13,39,8.10
2014,01,10,13,40,8.10
2014,01,10,13,41,8.10
2014,01,10,13,42,8.10
2014,01,10,13,43,8.10
2014,01,10,13,44,8.10
2014,01,10,13,45,8.10
2014,01,10,13,46,8.10
2014,01,10,13,47,8.10
2014,01,10,13,48,8.10
2014,01,10,13,49,8.10
2014,01,10,13,50,8.10
2014,01,10,13,51,8.10
2014,01,10,13,52,8.10
2014,01,10,13,53,8.10
2014,01,10,13,54,8.10
2014,01,10,13,55,8.10
2014,01,10,13,56,8.10
2014,01,10,13,57,8.10
2014,01,10,13,58,8.10
2014,01,10,13,59,8.00
2014,01,10,14,00,8.00
2014,01,10,14,01,8.00
2014,01,10,14,02,8.00
2014,01,10,14,03,8.00
2014,01,10,14,04,8.00
2014,01,10,14,05,8.00
2014,01,10,14,06,8.00
2014,01,10,14,07,7.90
2014,01,10,14,08,7.90
2014,01,10,14,09,7.90
2014,01,10,14,10,7.90
2014,01,10,14,11,7.90
2014,01,10,14,12,7.90
2014,01,10,14,13,7.90
2014,01,10,14,14,7.90
2014,01,10,14,15,7.90
2014,01,10,14,16,7.90
2014,01,10,14,17,7.90
2014,01,10,14,18,7.90
2014,01,10,14,34,7.60
2014,01,10,14,35,7.50
2014,01,10,14,36,7.50
2014,01,10,14,37,7.40
2014,01,10,14,38,7.40
2014,01,10,14,39,7.40
2014,01,10,14,40,7.40
2014,01,10,14,41,7.30
2014,01,10,14,42,7.30
2014,01,10,14,43,7.30
2014,01,10,14,44,7.30
2014,01,10,14,45,7.30
2014,01,10,14,46,7.20
2014,01,10,14,47,7.20
2014,01,10,14,48,7.20
2014,01,10,14,49,7.20
2014,01,10,14,50,7.20
2014,01,10,14,51,7.20
2014,01,10,14,52,7.10
2014,01,10,14,53,7.10
2014,01,10,14,54,7.10
2014,01,10,14,55,7.10
2014,01,10,14,56,7.10
2014,01,10,14,57,7.00
2014,01,10,14,58,7.00
2014,01,10,14,59,7.00
2014,01,10,15,00,6.90
2014,01,10,15,01,6.90
2014,01,10,15,02,6.90
2014,01,10,15,03,6.90
2014,01,10,15,04,6.80
2014,01,10,15,05,6.80
2014,01,10,15,06,6.80
2014,01,10,15,07,6.80
2014,01,10,15,08,6.80
2014,01,10,15,09,6.80
2014,01,10,15,10,6.70
2014,01,10,15,11,6.70
2014,01,10,15,12,6.70
2014,01,10,15,13,6.70
2014,01,10,15,14,6.70
2014,01,10,15,15,6.60
2014,01,10,15,16,6.60
2014,01,10,15,17,6.60
2014,01,10,15,18,6.60
2014,01,10,15,19,6.60
2014,01,10,15,20,6.60
2014,01,10,15,21,6.60
2014,01,10,15,22,6.60
2014,01,10,15,23,6.50
2014,01,10,15,24,6.50
2014,01,10,15,25,6.50
2014,01,10,15,26,6.50
2014,01,10,15,27,6.50
2014,01,10,15,28,6.40
2014,01,10,15,29,6.40
2014,01,10,15,30,6.40
2014,01,10,15,31,6.40
2014,01,10,15,32,6.40
2014,01,10,15,33,6.40
2014,01,10,15,34,6.40
2014,01,10,15,35,6.40
2014,01,10,15,36,6.40
2014,01,10,15,37,6.40
2014,01,10,15,38,6.40
2014,01,10,15,39,6.40
2014,01,10,15,40,6.40
2014,01,10,15,41,6.40
2014,01,10,15,42,6.40
2014,01,10,15,43,6.40
2014,01,10,15,44,6.40
2014,01,10,15,45,6.40
2014,01,10,15,46,6.30
2014,01,10,15,47,6.30
2014,01,10,15,48,6.30
2014,01,10,15,49,6.30
2014,01,10,15,50,6.30
2014,01,10,15,51,6.30
2014,01,10,15,52,6.30
2014,01,10,15,53,6.30
2014,01,10,15,54,6.20
2014,01,10,15,55,6.20
2014,01,10,15,56,6.20
2014,01,10,15,57,6.20
2014,01,10,15,58,6.20
2014,01,10,15,59,6.20
2014,01,10,16,00,6.20
2014,01,10,16,01,6.20
2014,01,10,16,02,6.20
2014,01,10,16,03,6.20
2014,01,10,16,04,6.20
2014,01,10,16,05,6.20
2014,01,10,16,06,6.20
2014,01,10,16,07,6.20
2014,01,10,16,08,6.20
2014,01,10,16,09,6.20
2014,01,10,16,10,6.20
2014,01,10,16,11,6.20
2014,01,10,16,12,6.20
2014,01,10,16,13,6.20
2014,01,10,16,14,6.20
2014,01,10,16,15,6.20
2014,01,10,16,16,6.20
2014,01,10,16,17,6.20
2014,01,10,16,18,6.20
2014,01,10,16,19,6.20
2014,01,10,16,20,6.20
2014,01,10,16,21,6.20
2014,01,10,16,22,6.20
2014,01,10,16,23,6.20
2014,01,10,16,24,6.10
2014,01,10,16,25,6.10
2014,01,10,16,26,6.10
2014,01,10,16,27,6.10
2014,01,10,16,28,6.10
2014,01,10,16,29,6.10
2014,01,10,16,30,6.10
2014,01,10,16,31,6.10
2014,01,10,16,32,6.10
2014,01,10,16,33,6.10
2014,01,10,16,34,6.00
2014,01,10,16,35,6.10
2014,01,10,16,36,6.00
2014,01,10,16,37,6.00
2014,01,10,16,38,6.00
2014,01,10,16,39,6.00
2014,01,10,16,40,6.00
2014,01,10,16,41,6.00
2014,01,10,16,42,6.00
2014,01,10,16,43,6.00
2014,01,10,16,44,6.00
2014,01,10,16,45,6.00
2014,01,10,16,46,6.00
2014,01,10,16,47,6.00
2014,01,10,16,48,6.00
2014,01,10,16,49,6.00
2014,01,10,16,50,6.00
2014,01,10,16,51,6.00
2014,01,10,16,52,6.00
2014,01,10,16,53,5.90
2014,01,10,16,54,5.90
2014,01,10,16,55,5.90
2014,01,10,16,56,5.90
2014,01,10,16,57,5.90
2014,01,10,16,58,5.90
2014,01,10,16,59,5.90
2014,01,10,17,00,5.90
2014,01,10,17,01,5.90
2014,01,10,17,02,5.90
2014,01,10,17,03,5.90
2014,01,10,17,04,5.90
2014,01,10,17,05,5.90
2014,01,10,17,06,5.90
2014,01,10,17,07,5.90
2014,01,10,17,08,5.90
2014,01,10,17,09,5.90
2014,01,10,17,10,5.90
2014,01,10,17,11,5.90
2014,01,10,17,12,5.90
2014,01,10,17,13,5.80
2014,01,10,17,14,5.90
2014,01,10,17,15,5.90
2014,01,10,17,16,5.90
2014,01,10,17,17,5.80
2014,01,10,17,18,5.80
2014,01,10,17,19,5.80
2014,01,10,17,20,5.80
2014,01,10,17,21,5.80
2014,01,10,17,22,5.80
2014,01,10,17,23,5.80
2014,01,10,17,24,5.70
2014,01,10,17,25,5.70
2014,01,10,17,26,5.70
2014,01,10,17,27,5.70
2014,01,10,17,28,5.70
2014,01,10,17,29,5.70
2014,01,10,17,30,5.70
2014,01,10,17,31,5.70
2014,01,10,17,32,5.60
2014,01,10,17,33,5.60
2014,01,10,17,34,5.60
2014,01,10,17,35,5.60
2014,01,10,17,36,5.60
2014,01,10,17,37,5.60
2014,01,10,17,38,5.60
2014,01,10,17,39,5.60
2014,01,10,17,40,5.60
2014,01,10,17,41,5.60
2014,01,10,17,42,5.60
2014,01,10,17,43,5.60
2014,01,10,17,44,5.50
2014,01,10,17,45,5.50
2014,01,10,17,46,5.40
2014,01,10,17,47,5.40
2014,01,10,17,48,5.40
2014,01,10,17,49,5.40
2014,01,10,17,50,5.30
2014,01,10,17,51,5.30
2014,01,10,17,52,5.30
2014,01,10,17,53,5.30
2014,01,10,17,54,5.30
2014,01,10,17,55,5.20
2014,01,10,17,56,5.20
2014,01,10,17,57,5.20
2014,01,10,17,58,5.10
2014,01,10,17,59,5.10
2014,01,10,18,00,5.10
2014,01,10,18,01,5.10
2014,01,10,18,02,5.00
2014,01,10,18,03,5.00
2014,01,10,18,04,4.90
2014,01,10,18,05,4.90
2014,01,10,18,06,4.90
2014,01,10,18,07,4.80
2014,01,10,18,08,4.80
2014,01,10,18,09,4.80
2014,01,10,18,10,4.70
2014,01,10,18,11,4.70
2014,01,10,18,12,4.70
2014,01,10,18,13,4.70
2014,01,10,18,14,4.70
2014,01,10,18,15,4.70
2014,01,10,18,16,4.70
2014,01,10,18,17,4.70
2014,01,10,18,18,4.70
2014,01,10,18,19,4.70
2014,01,10,18,20,4.60
2014,01,10,18,21,4.60